When you browse on this site, cookies collect data to enhance your experience and personalize the content and advertising you see.
Visit our Privacy Policy to learn more. By continuing to use the site, you agree to this use of cookies and data.
  • In Spain
  • List of Countries
  • For 7 days
  • Water Temperature
  • Satellite Maps
  • Weather Map
  • Weather Widgets
  • user-avatar
    Login

    Hourly Weather Townsville

    Today, 18 February, Monday

    Time Temperature Precipitation Wind Pressure Humidity
    00:00 +27°C° 0 mm 2 mps 750 mmHg 84%
    01:00 +27°C° 0 mm 2 mps 750 mmHg 85%
    02:00 +26°C° 0 mm 1 mps 750 mmHg 85%
    03:00 +26°C° 0 mm 1 mps 750 mmHg 85%
    04:00 +26°C° 0 mm 1 mps 750 mmHg 87%
    05:00 +26°C° 0 mm 1 mps 750 mmHg 86%
    06:00 +25°C° 0 mm 0 mps 750 mmHg 85%
    07:00 +25°C° 0 mm 0 mps 751 mmHg 84%
    08:00 +28°C° 0 mm 1 mps 751 mmHg 78%
    09:00 +30°C° 0 mm 1 mps 751 mmHg 72%
    10:00 +31°C° 0 mm 2 mps 751 mmHg 67%
    11:00 +32°C° 0 mm 2 mps 750 mmHg 65%
    12:00 +34°C° 0 mm 2 mps 750 mmHg 62%
    13:00 +34°C° 0 mm 3 mps 750 mmHg 60%
    14:00 +34°C° 0.2 mm 3 mps 749 mmHg 63%
    15:00 +33°C° 0.2 mm 3 mps 749 mmHg 66%
    16:00 +33°C° 0 mm 3 mps 748 mmHg 69%
    17:00 +31°C° 0 mm 3 mps 748 mmHg 73%
    18:00 +30°C° 0 mm 3 mps 749 mmHg 78%
    19:00 +29°C° 0 mm 3 mps 749 mmHg 82%
    20:00 +28°C° 0 mm 3 mps 749 mmHg 83%
    21:00 +28°C° 0 mm 3 mps 749 mmHg 84%
    22:00 +28°C° 0 mm 3 mps 750 mmHg 86%
    23:00 +28°C° 0.2 mm 3 mps 750 mmHg 87%

    Tomorrow, 19 February, Tuesday

    Time Temperature Precipitation Wind Pressure Humidity
    00:00 +28°C° 0.2 mm 3 mps 750 mmHg 89%
    01:00 +28°C° 0.2 mm 3 mps 749 mmHg 91%
    02:00 +28°C° 0.1 mm 3 mps 749 mmHg 91%
    03:00 +27°C° 0.1 mm 3 mps 749 mmHg 92%
    04:00 +27°C° 0.1 mm 3 mps 749 mmHg 92%
    05:00 +28°C° 0 mm 3 mps 749 mmHg 91%
    06:00 +28°C° 0 mm 3 mps 749 mmHg 90%
    07:00 +28°C° 0 mm 3 mps 749 mmHg 88%
    08:00 +30°C° 0 mm 2 mps 749 mmHg 79%
    09:00 +32°C° 0 mm 2 mps 749 mmHg 70%
    10:00 +34°C° 0 mm 1 mps 749 mmHg 60%
    11:00 +36°C° 0 mm 2 mps 748 mmHg 55%
    12:00 +38°C° 0 mm 3 mps 748 mmHg 49%
    13:00 +39°C° 0 mm 3 mps 747 mmHg 43%
    14:00 +38°C° 0 mm 4 mps 747 mmHg 49%
    15:00 +37°C° 0 mm 4 mps 746 mmHg 56%
    16:00 +35°C° 0 mm 4 mps 746 mmHg 62%
    17:00 +34°C° 0 mm 4 mps 746 mmHg 70%
    18:00 +31°C° 0 mm 3 mps 746 mmHg 79%
    19:00 +29°C° 0 mm 3 mps 747 mmHg 87%
    20:00 +29°C° 0 mm 2 mps 747 mmHg 89%
    21:00 +29°C° 0 mm 2 mps 748 mmHg 90%
    22:00 +29°C° 0 mm 1 mps 749 mmHg 92%
    23:00 +28°C° 0 mm 1 mps 748 mmHg 92%

    Day after tomorrow, 20 February, Wednesday

    Time Temperature Precipitation Wind Pressure Humidity
    00:00 +28°C° 0 mm 1 mps 748 mmHg 91%
    01:00 +28°C° 0 mm 1 mps 747 mmHg 91%
    02:00 +28°C° 0 mm 1 mps 747 mmHg 88%
    03:00 +28°C° 0 mm 1 mps 747 mmHg 85%
    04:00 +28°C° 0 mm 2 mps 746 mmHg 82%
    05:00 +28°C° 0 mm 2 mps 746 mmHg 76%
    06:00 +28°C° 0 mm 2 mps 746 mmHg 70%
    07:00 +28°C° 0 mm 2 mps 747 mmHg 64%
    08:00 +31°C° 0 mm 2 mps 747 mmHg 55%
    09:00 +34°C° 0 mm 2 mps 747 mmHg 47%
    10:00 +36°C° 0 mm 2 mps 748 mmHg 39%
    11:00 +38°C° 0 mm 2 mps 747 mmHg 36%
    12:00 +39°C° 0 mm 2 mps 747 mmHg 33%
    13:00 +42°C° 0 mm 3 mps 747 mmHg 30%
    14:00 +40°C° 0 mm 3 mps 746 mmHg 35%
    15:00 +39°C° 0 mm 3 mps 745 mmHg 39%
    16:00 +38°C° 0 mm 4 mps 744 mmHg 43%
    17:00 +36°C° 0 mm 3 mps 744 mmHg 53%
    18:00 +34°C° 0 mm 2 mps 745 mmHg 63%
    19:00 +31°C° 0 mm 1 mps 745 mmHg 73%
    20:00 +30°C° 0 mm 2 mps 745 mmHg 71%
    21:00 +30°C° 0 mm 2 mps 746 mmHg 68%
    22:00 +30°C° 0 mm 2 mps 747 mmHg 65%
    23:00 +29°C° 0 mm 2 mps 746 mmHg 59%

    21 February, Thursday

    Time Temperature Precipitation Wind Pressure Humidity
    00:00 +29°C° 0 mm 2 mps 746 mmHg 52%
    01:00 +29°C° 0 mm 2 mps 746 mmHg 46%
    02:00 +29°C° 0 mm 2 mps 746 mmHg 42%
    03:00 +28°C° 0 mm 3 mps 746 mmHg 39%
    04:00 +28°C° 0 mm 3 mps 745 mmHg 35%
    05:00 +28°C° 0 mm 4 mps 746 mmHg 35%
    06:00 +28°C° 0 mm 4 mps 746 mmHg 36%
    07:00 +28°C° 0 mm 5 mps 747 mmHg 36%
    08:00 +30°C° 0 mm 5 mps 747 mmHg 34%
    09:00 +33°C° 0 mm 4 mps 747 mmHg 31%
    10:00 +36°C° 0 mm 4 mps 748 mmHg 29%
    11:00 +37°C° 0 mm 4 mps 747 mmHg 27%
    12:00 +39°C° 0 mm 3 mps 747 mmHg 26%
    13:00 +40°C° 0 mm 3 mps 746 mmHg 24%
    14:00 +39°C° 0 mm 3 mps 746 mmHg 30%
    15:00 +38°C° 0 mm 4 mps 745 mmHg 36%
    16:00 +38°C° 0 mm 4 mps 744 mmHg 42%
    17:00 +35°C° 0 mm 4 mps 745 mmHg 55%
    18:00 +33°C° 0 mm 3 mps 745 mmHg 69%
    19:00 +30°C° 0 mm 3 mps 745 mmHg 83%
    20:00 +29°C° 0 mm 2 mps 746 mmHg 85%
    21:00 +29°C° 0 mm 2 mps 746 mmHg 88%
    22:00 +28°C° 0 mm 1 mps 747 mmHg 90%
    23:00 +28°C° 0 mm 1 mps 747 mmHg 90%

    22 February, Friday

    Time Temperature Precipitation Wind Pressure Humidity
    00:00 +28°C° 0 mm 1 mps 747 mmHg 90%
    01:00 +28°C° 0 mm 1 mps 746 mmHg 89%
    02:00 +27°C° 0 mm 1 mps 746 mmHg 85%
    03:00 +27°C° 0 mm 2 mps 746 mmHg 82%
    04:00 +27°C° 0 mm 2 mps 746 mmHg 78%
    05:00 +27°C° 0 mm 1 mps 746 mmHg 75%
    06:00 +27°C° 0 mm 1 mps 747 mmHg 73%
    07:00 +27°C° 0 mm 1 mps 747 mmHg 70%
    08:00 +29°C° 0 mm 1 mps 748 mmHg 62%
    09:00 +30°C° 0 mm 0 mps 748 mmHg 53%
    10:00 +32°C° 0 mm 0 mps 748 mmHg 45%
    11:00 +34°C° 0 mm 1 mps 748 mmHg 47%
    12:00 +36°C° 0 mm 2 mps 747 mmHg 48%
    13:00 +36°C° 0 mm 3 mps 747 mmHg 50%
    14:00 +35°C° 0 mm 3 mps 746 mmHg 57%
    15:00 +35°C° 0 mm 4 mps 746 mmHg 64%
    16:00 +34°C° 0 mm 4 mps 745 mmHg 71%
    17:00 +33°C° 0 mm 4 mps 746 mmHg 75%
    18:00 +30°C° 0 mm 3 mps 746 mmHg 80%
    19:00 +29°C° 0 mm 3 mps 747 mmHg 84%
    20:00 +29°C° 0 mm 3 mps 748 mmHg 86%
    21:00 +29°C° 0 mm 3 mps 748 mmHg 88%
    22:00 +28°C° 0 mm 3 mps 749 mmHg 90%
    23:00 +28°C° 0 mm 3 mps 748 mmHg 89%

    23 February, Saturday

    Time Temperature Precipitation Wind Pressure Humidity
    00:00 +28°C° 0 mm 4 mps 748 mmHg 89%
    01:00 +28°C° 0 mm 4 mps 748 mmHg 88%
    02:00 +28°C° 0.1 mm 4 mps 748 mmHg 89%
    03:00 +28°C° 0.1 mm 4 mps 748 mmHg 89%
    04:00 +28°C° 0.1 mm 3 mps 748 mmHg 90%
    05:00 +28°C° 0.1 mm 3 mps 748 mmHg 89%
    06:00 +28°C° 0.1 mm 2 mps 749 mmHg 89%
    07:00 +29°C° 0.1 mm 2 mps 749 mmHg 88%
    08:00 +30°C° 0 mm 2 mps 749 mmHg 82%
    09:00 +31°C° 0 mm 3 mps 750 mmHg 76%
    10:00 +33°C° 0 mm 3 mps 750 mmHg 69%
    11:00 +33°C° 0.2 mm 3 mps 749 mmHg 68%
    12:00 +34°C° 0.2 mm 3 mps 749 mmHg 66%
    13:00 +34°C° 0.2 mm 3 mps 749 mmHg 65%
    14:00 +34°C° 0.1 mm 4 mps 748 mmHg 66%
    15:00 +33°C° 0.1 mm 4 mps 748 mmHg 67%
    16:00 +33°C° 0.1 mm 4 mps 748 mmHg 68%
    17:00 +32°C° 0 mm 4 mps 748 mmHg 74%
    18:00 +30°C° 0 mm 4 mps 749 mmHg 80%
    19:00 +29°C° 0 mm 4 mps 749 mmHg 85%
    20:00 +29°C° 0 mm 3 mps 750 mmHg 86%
    21:00 +29°C° 0 mm 3 mps 750 mmHg 87%
    22:00 +29°C° 0 mm 3 mps 751 mmHg 87%
    23:00 +28°C° 0.1 mm 3 mps 751 mmHg 88%
    Show more